Location: Kuppenheim
(48.8299°N, 8.2568°E)
Time: 10:30:19
(UTC+00:00)

USA 267 - Pass Details

Date: 20 June 2021
Orbit: 1102 x 1106 km, 123.0° (Epoch: 03 August)

Event Time Altitude Azimuth Distance (km) Brightness Sun altitude
Exits shadow 01:19:19 17° 220° (SW) 2,453 4.5 -13.6°
Maximum altitude 01:20:51 19° 237° (WSW) 2,373 4.5 -13.5°
Drops below altitude 10° 01:25:14 10° 280° (W) 2,963 5.3 -13.2°
Sets 01:28:38 0° 298° (WNW) 3,926 6.2 -12.9°
